Regional Weather Roundup
Issued by NWS Newport/Morehead, NC

Current Version | Previous Version | Graphics & Text | Print | Product List | Glossary Off
Versions: 1 2 3 4 5 6 7 8 9 10 11 12 13 14 15 16 17 18 19 20 21 22 23 24 25 26 27 28 29 30 31 32 33 34 35 36 37 38 39 40 41 42 43 44 45 46 47 48 49 50

000
ASUS42 KMHX 271624
RWRMHX
WEATHER ROUNDUP FOR EASTERN NORTH CAROLINA
NATIONAL WEATHER SERVICE NEWPORT/MOREHEAD CITY NC
1200 PM EDT FRI MAR 27 2015

NOTE: "FAIR" INDICATES FEW OR NO CLOUDS BELOW 12,000 FEET
WITH NO SIGNIFICANT WEATHER AND/OR OBSTRUCTIONS TO VISIBILITY

NCZ015>017-031-032-045>047-102-103-271700-
NORTH COAST

CITY           SKY/WX    TMP DP  RH WIND       PRES   REMARKS
EDENTON        CLOUDY    46  44  93 N10       29.74F FOG
ELIZABETH CITY CLOUDY    47  45  93 N14       29.74S FOG
KITTY HAWK     CLOUDY    43  42  97 N14G23    29.70F FOG
MANTEO         CLOUDY    43  42  95 N20G29    29.72F

$$

NCZ045>047-081-094-103-104-271700-
CENTRAL COAST

CITY           SKY/WX    TMP DP  RH WIND       PRES   REMARKS
FRISCO         CLOUDY    47  44  90 N16G26    29.69F
SWANQUARTER      N/A     48 N/A N/A NE10G25   29.68S

$$

NCZ095-097-098-100-101-271700-
SOUTHERN COAST

CITY           SKY/WX    TMP DP  RH WIND       PRES   REMARKS
BEAUFORT       CLOUDY    63  62  97 W9        29.66S
CEDAR ISLAND     N/A     50 N/A N/A N14G29    29.74S
JACKSONVILLE   CLOUDY    61  55  81 N14       29.66R
PINEY ISLAND   CLOUDY   N/A N/A N/A NE16G26   29.70R
WILMINGTON     CLOUDY    71  62  73 W6        29.65F


$$

NCZ011>013-027>030-043-044-078>080-089-090>093-098-271700-
COASTAL PLAIN

CITY           SKY/WX    TMP DP  RH WIND       PRES   REMARKS
AHOSKIE        RAIN      45  44  95 N9        29.76S
CLINTON        CLOUDY    50  49  97 N9G17     29.74R
ELIZABETHTOWN  LGT RAIN  53  51  93 N8        29.70R
GOLDSBORO      RAIN      48  46  93 N10       29.72R FOG
GREENVILLE     CLOUDY    50  48  93 NE10      29.76S FOG
HAVELOCK       CLOUDY    53  50  89 NE17      29.69R
KENANSVILLE    LGT RAIN  51  46  82 N16       29.72R
KINSTON        LGT RAIN  50  48  93 NE15      29.70F
NEW BERN       CLOUDY    51  47  86 N17G23    29.71R
RICHLANDS      CLOUDY    55  48  76 N12G18    29.67F
ROCKY MOUNT    RAIN      46  45  96 N14       29.75S FOG
WASHINGTON     CLOUDY    47  45  92 NE14      29.72F
WHITEVILLE     LGT RAIN  68  61  78 W5        29.65F

$$

AMZ130-135-150-152-154-156-158-170-250-252-270-ANZ085-086-088-633-658-670-271700-
MARINE OBSERVATIONS

STATION/POSITION TIME  TEMP    WIND        PRES    WAVE   SWELL
                       AIR SEA DIR/SP/G            HT/PER HT/PER
                 (UTC) (F)     (DEG/KT/KT) (MB)    (FT/S) (FT/S)
CHESAPEAKE LIGHT 1600   41      20/ 15/ 17 1007.6
64 E VA BEACH    1550   49 52   10/ 23/ 27 1004.7    9/ 7   3/10
DUCK             1600   42 41   10/ 18/ 21 1005.5
2 E DUCK         1511      42                N/A     5/ 5   2/11
10 NE DUCK       NOT AVBL
OREGON INLET     1600   43 58  360/ 18/ 25 1005.4
HATTERAS CG      1500   50 60   10/ 20/ 24 1006.1
CAPE LOOKOUT     1600   62     250/  8/ 11 1004.3
BEAUFORT LAB     1500   63 58  230/  4/  7 1003.4
27 SE WRIGHTSVLE 1600   61 65  250/ 17/ 21 1006.5
5 SE WRIGHTSVLE  1500   60 58  220/ 12/ 14 1004.6
225 S CAPE HAT   1550   71 69  210/ 23/ 29 1008.3   10/ 8   2/13
41 SE CHARLESTON 1550   66 70  230/ 19/ 23 1006.3    6/ 6   3/ 8

$$


USA.gov is the U.S. government's official web portal to all federal, state and local government web resources and services.